This demonstration page uses our WeatherBlox Daily Observations layout. Learn more.

36.17497, -115.13722

Hourly Observations for July 23, 2015

Temp ( °F °C ) Dew Point ( °F °C ) Humidity (%) Winds ( mph kmh ) Pressure ( in mb ) Visibility ( mi km ) Precip ( " mm )
12:53 am 00:53 Clear 85 29.4 38 3.3 19 19 SW 7 11 29.78 1009 10 16.0934 0 0
1:53 am 01:53 Clear 82 27.8 44 6.7 26 26 Calm 29.8 1009 10 16.0934 0 0
2:53 am 02:53 Clear 82 27.8 47 8.3 29 29 S 5 7 29.82 1010 10 16.0934 0 0
3:53 am 03:53 Clear 81 27.2 49 9.4 33 33 S 8 13 29.83 1010 10 16.0934 0 0
4:53 am 04:53 Clear 79 26.1 49 9.4 35 35 SW 5 7 29.84 1011 10 16.0934 0 0
5:53 am 05:53 Sunny 77 25 49 9.4 37 37 SSE 5 7 29.87 1012 10 16.0934 0 0
6:53 am 06:53 Sunny 80 26.7 50 10 35 35 SSW 7 11 29.89 1012 10 16.0934 0 0
7:53 am 07:53 Sunny 82 27.8 50 10 33 33 SSW 8 13 29.9 1012 10 16.0934 0 0
8:53 am 08:53 Sunny 85 29.4 50 10 30 30 SE 8 13 29.91 1013 10 16.0934 0 0
9:53 am 09:53 Sunny 87 30.6 49 9.4 27 27 SE 9 15 29.91 1013 10 16.0934 0 0
10:53 am 10:53 Sunny 89 31.7 48 8.9 24 24 SE 7 11 29.91 1013 10 16.0934 0 0
11:53 am 11:53 Sunny 92 33.3 46 7.8 21 21 SE 12 19 29.89 1012 10 16.0934 0 0
12:53 pm 12:53 Sunny 96 35.6 40 4.4 14 14 SW 13 20 29.87 1012 10 16.0934 0 0
1:53 pm 13:53 Sunny 98 36.7 35 1.7 11 11 S 16 26 29.86 1011 10 16.0934 0 0
2:53 pm 14:53 Sunny 98 36.7 33 0.6 10 10 S 12 19 29.84 1011 10 16.0934 0 0
3:53 pm 15:53 Sunny 97 36.1 35 1.7 11 11 W 9 15 29.83 1010 10 16.0934 0 0
4:53 pm 16:53 Sunny 99 37.2 35 1.7 11 11 WSW 8 13 29.81 1010 10 16.0934 0 0
5:53 pm 17:53 Sunny 98 36.7 35 1.7 11 11 WSW 16 26 29.81 1010 10 16.0934 0 0
6:53 pm 18:53 Sunny 96 35.6 33 0.6 11 11 SW 10 17 29.82 1010 10 16.0934 0 0
7:53 pm 19:53 Sunny 94 34.4 35 1.7 13 13 WSW 12 19 29.84 1011 10 16.0934 0 0
8:53 pm 20:53 Clear 92 33.3 37 2.8 14 14 WSW 6 9 29.86 1011 10 16.0934 0 0
9:53 pm 21:53 Clear 89 31.7 38 3.3 16 16 S 6 9 29.89 1012 10 16.0934 0 0
10:53 pm 22:53 Clear 89 31.7 32 0 13 13 SSW 8 13 29.9 1013 10 16.0934 0 0
11:53 pm 23:53 Clear 88 31.1 33 0.6 14 14 SW 14 22 29.9 1013 10 16.0934 0 0

Powered by AerisWeather